This is the latest recevied weather packets stored in our database for station/object SV1JSO-13. If no packets are shown the sender has not sent any weather packets the latest 10 day(s).
| Time | Temp. | Humidity | Pressure | Rain* | Wind** | Luminosity | Snow |
|---|---|---|---|---|---|---|---|
| 1788430200 | 33.33° C | 32% | 1006.4 hPa | 0 mm | - | 727 W/m² | - |
| 1788429900 | 32.78° C | 33% | 1006.4 hPa | 0 mm | - | 717 W/m² | - |
| 1788429600 | 33.33° C | 32% | 1006.6 hPa | 0 mm | - | 722 W/m² | - |
| 1788429300 | 32.78° C | 33% | 1006.7 hPa | 0 mm | - | 715 W/m² | - |
| 1788429000 | 32.78° C | 33% | 1006.7 hPa | 0 mm | - | 718 W/m² | - |
| 1788428700 | 33.33° C | 33% | 1006.8 hPa | 0 mm | - | 712 W/m² | - |
| 1788428400 | 32.78° C | 33% | 1006.7 hPa | 0 mm | - | 705 W/m² | - |
| 1788428100 | 33.33° C | 32% | 1007 hPa | 0 mm | - | 709 W/m² | - |
| 1788427800 | 32.78° C | 33% | 1006.9 hPa | 0 mm | - | 699 W/m² | - |
| 1788427500 | 32.78° C | 33% | 1007 hPa | 0 mm | - | 680 W/m² | - |
| 1788427200 | 32.22° C | 33% | 1007.1 hPa | 0 mm | - | 679 W/m² | - |
| 1788426901 | 32.22° C | 34% | 1007 hPa | 0 mm | - | 680 W/m² | - |
| 1788426600 | 31.67° C | 34% | 1007.1 hPa | 0 mm | - | 677 W/m² | - |
| 1788426301 | 31.67° C | 34% | 1007.1 hPa | 0 mm | - | 666 W/m² | - |
| 1788426001 | 31.67° C | 35% | 1007.1 hPa | 0 mm | - | 663 W/m² | - |
| 1788425701 | 31.67° C | 35% | 1007.2 hPa | 0 mm | - | 650 W/m² | - |
| 1788425400 | 31.67° C | 35% | 1007.1 hPa | 0 mm | - | 648 W/m² | - |
| 1788425100 | 31.67° C | 36% | 1007.3 hPa | 0 mm | - | 661 W/m² | - |
| 1788424800 | 31.67° C | 36% | 1007.3 hPa | 0 mm | - | 220 W/m² | - |
| 1788424500 | 31.67° C | 36% | 1007.3 hPa | 0 mm | - | 229 W/m² | - |
| 1788424201 | 31.67° C | 36% | 1007.3 hPa | 0 mm | - | 564 W/m² | - |
| 1788423901 | 31.67° C | 36% | 1007.3 hPa | 0 mm | - | 606 W/m² | - |
| 1788423600 | 31.11° C | 36% | 1007.3 hPa | 0 mm | - | 584 W/m² | - |
| 1788423300 | 31.11° C | 36% | 1007.3 hPa | 0 mm | - | 348 W/m² | - |
| 1788423000 | 31.67° C | 36% | 1007.2 hPa | 0 mm | - | 200 W/m² | - |
* Rain latest hour (hover to see other rain measurements)
** Current wind speed in m/s (hover to see current wind gust speed)